This is the latest recevied weather packets stored in our database for station/object DL1GHN-6. If no packets are shown the sender has not sent any weather packets the latest 10 day(s).
| Time | Temp. | Humidity | Pressure | Rain* | Wind** | Luminosity | Snow |
|---|---|---|---|---|---|---|---|
| 1778150530 | 14.44° C | 73% | 1015.4 hPa | 0.25 mm | - | 418 W/m² | - |
| 1778150230 | 14.44° C | 72% | 1015.4 hPa | 0.25 mm | - | 471 W/m² | - |
| 1778149930 | 13.89° C | 73% | 1015.4 hPa | 0.25 mm | - | 436 W/m² | - |
| 1778149630 | 13.89° C | 77% | 1015.4 hPa | 0.25 mm | - | 290 W/m² | - |
| 1778149330 | 13.89° C | 74% | 1015.4 hPa | 0.25 mm | - | 288 W/m² | - |
| 1778149030 | 13.89° C | 75% | 1015.4 hPa | 0.25 mm | - | 246 W/m² | - |
| 1778148729 | 13.89° C | 76% | 1015.4 hPa | 0.25 mm | - | 334 W/m² | - |
| 1778148430 | 13.89° C | 77% | 1015.4 hPa | 0 mm | - | 381 W/m² | - |
| 1778148129 | 13.89° C | 76% | 1015.4 hPa | 0 mm | - | 362 W/m² | - |
| 1778147830 | 13.89° C | 80% | 1015.4 hPa | 0 mm | - | 534 W/m² | - |
| 1778147530 | 13.89° C | 78% | 1015.4 hPa | 0 mm | - | 336 W/m² | - |
| 1778147230 | 13.33° C | 78% | 1015.4 hPa | 0 mm | - | 322 W/m² | - |
| 1778146930 | 13.33° C | 79% | 1015.3 hPa | 0 mm | - | 359 W/m² | - |
| 1778146628 | 13.33° C | 81% | 1015.4 hPa | 0 mm | - | 403 W/m² | - |
| 1778146330 | 13.33° C | 79% | 1015.3 hPa | 0 mm | - | 462 W/m² | - |
| 1778146029 | 13.33° C | 81% | 1015.2 hPa | 0 mm | - | 387 W/m² | - |
| 1778145729 | 12.78° C | 82% | 1015.3 hPa | 0 mm | - | 515 W/m² | - |
| 1778145430 | 12.78° C | 85% | 1015.2 hPa | 0 mm | - | 448 W/m² | - |
| 1778145130 | 12.22° C | 85% | 1015.2 hPa | 0 mm | - | 288 W/m² | - |
| 1778144830 | 12.22° C | 86% | 1015.2 hPa | 0 mm | - | 253 W/m² | - |
| 1778144530 | 12.22° C | 86% | 1015.1 hPa | 0 mm | - | 264 W/m² | - |
| 1778144229 | 12.22° C | 87% | 1015 hPa | 0 mm | - | 230 W/m² | - |
| 1778143930 | 12.22° C | 87% | 1015.1 hPa | 0 mm | - | 218 W/m² | - |
| 1778143629 | 12.22° C | 87% | 1015 hPa | 0 mm | - | 239 W/m² | - |
| 1778143330 | 12.22° C | 88% | 1015 hPa | 0 mm | - | 221 W/m² | - |
* Rain latest hour (hover to see other rain measurements)
** Current wind speed in m/s (hover to see current wind gust speed)